Regional Weather Roundup
Issued by NWS Sterling, VA

Home | Current Version | Previous Version | Text Only | Print | Product List | Glossary Off
Versions: 1 2 3 4 5 6 7 8 9 10 11 12 13 14 15 16 17 18 19 20 21 22 23 24 25 26

333
ASUS41 KLWX 211610
RWRLWX

REGIONAL WEATHER ROUNDUP
NATIONAL WEATHER SERVICE BALTIMORE MD/WASHINGTON DC
1200 PM EDT THU MAY 21 2015

Note: "FAIR" indicates few or no clouds below 12,000 feet
with no significant weather and/or obstructions to visibility.
 TC=TEMPERATURE CELSIUS

 * =Non NWS site. Station does not report precipitation (e.g. rain,
    snow, etc.), thunder, or fog.

DCZ001-MDZ009-015-VAZ040>042-051-053>054-211700-
WASHINGTON METRO

CITY           SKY/WX    TMP DP  RH WIND       PRES   REMARKS
WASHINGTON NAT LGT RAIN  54  48  82 NE10      30.02F
DULLES         LGT RAIN  51  47  86 E10       30.01F
ANDREWS AFB    RAIN      50  50 100 NE9       30.01S FOG
FT BELVOIR     LGT RAIN  52  50  93 VRB2      30.00F FOG
QUANTICO       RAIN      55  51  86 E14       30.00F FOG
COLLEGE PARK*  CLOUDY    50  46  87 NE3       30.03S
LEESBURG*      DRIZZLE   52  52 100 NE8       30.02S
MANASSAS*      LGT RAIN  54  52  94 E5        30.00F
GAITHERSBURG*  CLOUDY    50  45  81 E5        30.06F

$$

MDZ006>007-011-014-211700-
BALTIMORE METRO

CITY           SKY/WX    TMP DP  RH WIND       PRES   REMARKS
BWI AIRPORT    LGT RAIN  51  42  71 N6        30.03F
MD SCIENCE CTR   N/A     52  43  71 MISG      30.04F
MARTIN STATE   LGT RAIN  54  46  76 CALM      30.05S
ANNAPOLIS      LGT RAIN  51  44  77 SE3       30.03S
FORT MEADE*    CLOUDY    50  45  81 E8        30.06S

$$

MDZ012-015-019>023-211700-
MARYLAND EASTERN SHORE

CITY           SKY/WX    TMP DP  RH WIND       PRES   REMARKS
OCEAN CITY     LGT RAIN  58  50  75 NE6       29.99F
SALISBURY      LGT RAIN  54  51  90 N9        29.99R
BAY BRIDGE AP* LGT RAIN N/A N/A N/A CALM      30.04F
CAMBRIDGE*       N/A     54  50  87 NE5       30.00F
EASTON*        RAIN      54  50  87 N5        30.06R

$$

MDZ017>025-211700-
SOUTHERN MARYLAND

CITY           SKY/WX    TMP DP  RH WIND       PRES   REMARKS
PATUXENT RIVER LGT RAIN  54  52  93 NE12      29.98F FOG
ST INIGOES     LGT RAIN  55  53  93 NE9       29.97F FOG
LEONARDTOWN*   CLOUDY    52  50  93 NE5       30.00S

$$

MDZ003>005-211700-
NORTH CENTRAL MARYLAND

CITY           SKY/WX    TMP DP  RH WIND       PRES   REMARKS
FREDERICK*     CLOUDY    54  48  82 NE6       30.05
HAGERSTOWN APT LGT RAIN  53  47  79 SE6       30.00F
WESTMINSTER*   CLOUDY    52  45  76 SE3       30.01F

$$

MDZ501>502-211700-
WESTERN MARYLAND

CITY           SKY/WX    TMP DP  RH WIND       PRES   REMARKS
OAKLAND*       CLOUDY    43 N/A N/A SE10      29.96F FOG
CUMBERLAND*    CLOUDY    52  46  82 E3        30.03F

$$

VAZ025>031-211700-
SHENANDOAH VALLEY

CITY           SKY/WX    TMP DP  RH WIND       PRES   REMARKS
WINCHESTER*    DRIZZLE   52  46  82 CALM      30.01S
FRONT ROYAL*   CLOUDY    50  50 100 CALM      29.99S
LURAY*         RAIN      54  54 100 N6        29.99S
NEW MARKET*    CLOUDY    50  49  95 CALM      29.98F
STAUNTON*      DRIZZLE   53  51  92 N6        29.99S
WAYNESBORO*    CLOUDY    50  49  97 N3        29.98S

$$

WVZ021-048>050-054>055-211700-
EASTERN WEST VIRGINIA PANHANDLE

CITY           SKY/WX    TMP DP  RH WIND       PRES   REMARKS
MARTINSBURG    LGT RAIN  52  49  89 E3        30.01F FOG
PETERSBURG*    DRIZZLE   51  48  89 N3        30.00F

$$

VAZ036>039-050-211700-
CENTRAL FOOTHILLS

CITY           SKY/WX    TMP DP  RH WIND       PRES   REMARKS
CHARLOTTESVILL RAIN      53  51  93 N7        29.97F FOG
CULPEPER*      DRIZZLE   52  51  93 N5        30.00F
ORANGE*        LGT RAIN  54  54 100 N8        29.99F
GORDONSVILLE*  CLOUDY    53  52  96 NE6       29.97F FOG
WARRENTON*     DRIZZLE   54  53  97 NE5       29.99S

$$

VAZ055>057-211700-
NORTH AND CENTRAL PIEDMONT

CITY           SKY/WX    TMP DP  RH WIND       PRES   REMARKS
FREDERICKSBRG* DRIZZLE   57  57 100 E7        29.97F
STAFFORD*      DRIZZLE   53  51  92 NE9       30.02F

$$

NCZ024-NYZ072-PAZ021-071-VAZ022-071-211700-
OTHER REGIONAL OBSERVATIONS

CITY           SKY/WX    TMP DP  RH WIND       PRES   REMARKS
NEW YORK CITY  CLOUDY    60  35  39 CALM      30.02S
PHILADELPHIA   CLOUDY    57  42  57 SE5       30.02F
PITTSBURGH     CLOUDY    53  42  66 VRB3      29.97S
ROANOKE        LGT RAIN  56  54  93 NE5       29.97S
RICHMOND       LGT RAIN  56  54  93 NE10      29.93F
RALEIGH        CLOUDY    70  61  73 CALM      29.86S

$$

ANZ530>537-211700-
MARINE OBSERVATIONS

STATION/POSITION TIME  TEMP    WIND        PRES
                       AIR SEA DIR/SP/G
                 (UTC) (F)     (DEG/KT/KT) (MB)
THOMAS PT LIGHT  1600   50 66   60/  8/ 10 1017.3F
BALT KEY BRIDGE  1500   55      80/  7/ 10 1016.9R
COVE POINT       1500   53      70/ 12/ 14 1016.9R
LEWISETTA        1500   60 70              1014.4R
PINEY POINT      1500           70/  7/  9   N/A

$$




USA.gov is the U.S. government's official web portal to all federal, state and local government web resources and services.